Time,TemperatureF,DewpointF,PressureIn,WindDirection,WindDirectionDegrees,WindSpeedMPH,WindSpeedGustMPH,Humidity,HourlyPrecipIn,Conditions,Clouds,dailyrainin,SoftwareType,DateUTC
2013-08-08 08:37:00,68.2,65.8,29.95,NE,38,0.7,3.5,92,0.00,CLR,,0.00,WeatherDisplay:10.37,2013-08-08 12:37:00,
2013-08-08 08:38:00,68.2,65.8,29.95,NW,325,0.3,3.5,92,0.00,CLR,,0.00,WeatherDisplay:10.37,2013-08-08 12:38:00,
2013-08-08 08:43:00,68.4,66.0,29.95,North,5,0.4,1.1,92,0.00,CLR,,0.00,WeatherDisplay:10.37,2013-08-08 12:43:00,
2013-08-08 08:48:00,68.7,66.0,29.95,NNE,19,1.0,4.0,91,0.00,CLR,,0.00,WeatherDisplay:10.37,2013-08-08 12:48:00,
2013-08-08 08:53:00,69.0,66.3,29.95,NE,38,0.7,2.3,91,0.00,CLR,,0.00,WeatherDisplay:10.37,2013-08-08 12:53:00,
2013-08-08 08:54:00,69.1,66.4,29.95,NE,34,1.6,3.0,91,0.00,CLR,,0.00,WeatherDisplay:10.37,2013-08-08 12:54:00,
2013-08-08 08:58:00,69.1,66.0,29.95,NE,36,0.2,2.3,90,0.00,CLR,,0.00,WeatherDisplay:10.37,2013-08-08 12:58:00,
2013-08-08 08:59:00,69.1,66.0,29.95,NNE,28,0.6,2.3,90,0.00,CLR,,0.00,WeatherDisplay:10.37,2013-08-08 12:59:00,
2013-08-08 09:03:00,69.3,66.2,29.96,North,11,0.3,2.3,90,0.00,CLR,,0.00,WeatherDisplay:10.37,2013-08-08 13:03:00,
2013-08-08 09:04:00,69.3,66.2,29.95,NNE,32,0.1,2.3,90,0.00,CLR,,0.00,WeatherDisplay:10.37,2013-08-08 13:04:00,
2013-08-08 09:05:00,69.4,66.3,29.95,NE,44,0.6,2.3,90,0.00,CLR,,0.00,WeatherDisplay:10.37,2013-08-08 13:05:00,
2013-08-08 09:08:00,69.4,66.0,29.95,NNW,339,0.0,1.1,89,0.00,CLR,,0.00,WeatherDisplay:10.37,2013-08-08 13:08:00,
2013-08-08 09:09:00,69.4,66.0,29.95,NNW,339,0.1,1.1,89,0.00,CLR,,0.00,WeatherDisplay:10.37,2013-08-08 13:09:00,
2013-08-08 09:10:00,69.4,66.0,29.95,NE,46,0.9,3.0,89,0.00,CLR,,0.00,WeatherDisplay:10.37,2013-08-08 13:10:00,
2013-08-08 09:14:00,69.3,65.6,29.96,NNE,30,1.4,3.5,88,0.00,CLR,,0.00,WeatherDisplay:10.37,2013-08-08 13:14:00,
2013-08-08 09:15:00,69.3,65.9,29.96,ESE,111,0.3,2.3,89,0.00,CLR,,0.00,WeatherDisplay:10.37,2013-08-08 13:15:00,
2013-08-08 09:19:00,69.3,65.9,29.96,NNW,348,0.0,0.0,89,0.00,CLR,,0.00,WeatherDisplay:10.37,2013-08-08 13:19:00,
2013-08-08 09:20:00,69.3,66.2,29.96,NNE,29,0.2,1.1,90,0.00,CLR,,0.00,WeatherDisplay:10.37,2013-08-08 13:20:00,
2013-08-08 09:24:00,69.6,66.5,29.96,NNE,31,0.1,1.1,90,0.00,CLR,,0.00,WeatherDisplay:10.37,2013-08-08 13:24:00,
2013-08-08 09:25:00,69.7,66.6,29.96,NNW,338,0.1,0.0,90,0.00,CLR,,0.00,WeatherDisplay:10.37,2013-08-08 13:25:00,
2013-08-08 09:26:00,69.8,66.7,29.96,NE,41,0.3,1.1,90,0.00,CLR,,0.00,WeatherDisplay:10.37,2013-08-08 13:26:00,
2013-08-08 09:29:00,70.2,66.8,29.97,North,360,0.7,2.3,89,0.00,CLR,,0.00,WeatherDisplay:10.37,2013-08-08 13:29:00,
2013-08-08 09:30:00,70.2,66.8,29.97,NNE,28,1.0,2.0,89,0.00,CLR,,0.00,WeatherDisplay:10.37,2013-08-08 13:30:00,
2013-08-08 09:31:00,70.5,67.1,29.97,NE,49,0.4,1.1,89,0.00,CLR,,0.00,WeatherDisplay:10.37,2013-08-08 13:31:00,
2013-08-08 09:35:00,70.8,66.4,29.97,NNE,22,1.0,4.0,86,0.00,CLR,,0.00,WeatherDisplay:10.37,2013-08-08 13:35:00,
2013-08-08 09:37:00,70.8,66.4,29.97,NW,317,0.2,1.1,86,0.00,CLR,,0.00,WeatherDisplay:10.37,2013-08-08 13:37:00,
2013-08-08 09:40:00,70.8,66.4,29.98,ENE,61,0.1,1.1,86,0.00,CLR,,0.00,WeatherDisplay:10.37,2013-08-08 13:40:00,
2013-08-08 09:41:00,70.8,66.1,29.98,NE,49,1.0,3.5,85,0.00,CLR,,0.00,WeatherDisplay:10.37,2013-08-08 13:41:00,
2013-08-08 09:42:00,70.6,66.2,29.98,NE,49,0.5,2.3,86,0.00,CLR,,0.00,WeatherDisplay:10.37,2013-08-08 13:42:00,
2013-08-08 09:45:00,70.4,66.3,29.98,NNE,25,0.0,0.0,87,0.00,CLR,,0.00,WeatherDisplay:10.37,2013-08-08 13:45:00,
2013-08-08 09:46:00,70.4,66.3,29.98,NE,40,0.0,0.0,87,0.00,CLR,,0.00,WeatherDisplay:10.37,2013-08-08 13:46:00,
2013-08-08 09:47:00,70.4,66.3,29.98,NW,325,0.1,1.1,87,0.00,CLR,,0.00,WeatherDisplay:10.37,2013-08-08 13:47:00,
2013-08-08 09:50:00,70.4,66.3,29.98,North,9,0.1,1.1,87,0.00,CLR,,0.00,WeatherDisplay:10.37,2013-08-08 13:50:00,
2013-08-08 09:51:00,70.4,66.3,29.98,NNW,342,0.2,1.1,87,0.00,CLR,,0.00,WeatherDisplay:10.37,2013-08-08 13:51:00,
2013-08-08 09:52:00,70.4,66.3,29.98,NNW,342,0.0,1.1,87,0.00,CLR,,0.00,WeatherDisplay:10.37,2013-08-08 13:52:00,
2013-08-08 09:55:00,70.5,66.8,29.98,NNE,24,0.3,1.1,88,0.00,CLR,,0.00,WeatherDisplay:10.37,2013-08-08 13:55:00,
2013-08-08 09:56:00,70.6,66.9,29.98,NNW,341,0.8,3.5,88,0.00,CLR,,0.00,WeatherDisplay:10.37,2013-08-08 13:56:00,
2013-08-08 09:57:00,70.8,66.7,29.98,NNE,30,0.0,3.5,87,0.00,CLR,,0.00,WeatherDisplay:10.37,2013-08-08 13:57:00,
2013-08-08 09:58:00,70.8,66.7,29.98,North,355,0.0,0.0,87,0.00,CLR,,0.00,WeatherDisplay:10.37,2013-08-08 13:58:00,
2013-08-08 10:00:00,71.1,66.7,29.98,NW,312,0.8,3.5,86,0.00,CLR,,0.00,WeatherDisplay:10.37,2013-08-08 14:00:00,
2013-08-08 10:01:00,71.2,66.8,29.98,NNW,329,0.4,3.5,86,0.00,CLR,,0.00,WeatherDisplay:10.37,2013-08-08 14:01:00,
2013-08-08 10:02:00,71.3,66.9,29.98,NE,34,1.1,2.0,86,0.00,CLR,,0.00,WeatherDisplay:10.37,2013-08-08 14:02:00,
2013-08-08 10:03:00,71.3,66.9,29.98,NE,34,1.2,4.6,86,0.00,CLR,,0.00,WeatherDisplay:10.37,2013-08-08 14:03:00,
2013-08-08 10:05:00,71.3,66.2,29.99,NNE,29,0.5,4.6,84,0.00,CLR,,0.00,WeatherDisplay:10.37,2013-08-08 14:05:00,
2013-08-08 10:06:00,71.3,66.2,29.99,NNE,29,0.3,4.6,84,0.00,CLR,,0.00,WeatherDisplay:10.37,2013-08-08 14:06:00,
2013-08-08 10:08:00,71.1,66.0,29.99,ENE,63,2.5,4.6,84,0.00,CLR,,0.00,WeatherDisplay:10.37,2013-08-08 14:08:00,
2013-08-08 10:09:00,71.0,66.3,29.99,NE,52,0.8,5.8,85,0.00,CLR,,0.00,WeatherDisplay:10.37,2013-08-08 14:09:00,
2013-08-08 10:11:00,70.7,66.0,29.99,ENE,63,1.5,4.6,85,0.00,CLR,,0.00,WeatherDisplay:10.37,2013-08-08 14:11:00,
2013-08-08 10:13:00,70.5,66.1,29.99,NE,44,1.7,3.5,86,0.00,CLR,,0.00,WeatherDisplay:10.37,2013-08-08 14:13:00,
2013-08-08 10:14:00,70.4,66.3,29.99,NE,44,0.3,3.5,87,0.00,CLR,,0.00,WeatherDisplay:10.37,2013-08-08 14:14:00,
2013-08-08 10:16:00,70.4,66.3,29.99,NE,45,1.3,2.3,87,0.00,CLR,,0.00,WeatherDisplay:10.37,2013-08-08 14:16:00,
2013-08-08 10:17:00,70.4,67.0,29.99,NNE,23,0.1,1.1,89,0.00,CLR,,0.00,WeatherDisplay:10.37,2013-08-08 14:17:00,
2013-08-08 10:19:00,70.4,67.0,29.99,NE,34,0.0,1.1,89,0.00,CLR,,0.00,WeatherDisplay:10.37,2013-08-08 14:19:00,
2013-08-08 10:21:00,70.4,66.0,29.99,North,5,2.2,4.6,86,0.00,CLR,,0.00,WeatherDisplay:10.37,2013-08-08 14:21:00,
2013-08-08 10:22:00,70.3,66.2,29.99,NNE,22,0.1,2.3,87,0.00,CLR,,0.00,WeatherDisplay:10.37,2013-08-08 14:22:00,
2013-08-08 10:24:00,70.2,65.8,29.98,NNE,32,3.1,5.8,86,0.00,CLR,,0.00,WeatherDisplay:10.37,2013-08-08 14:24:00,
2013-08-08 10:26:00,70.2,66.1,29.98,NNE,15,0.5,3.5,87,0.00,CLR,,0.00,WeatherDisplay:10.37,2013-08-08 14:26:00,
2013-08-08 10:27:00,70.2,66.1,29.98,NE,48,0.4,2.3,87,0.00,CLR,,0.00,WeatherDisplay:10.37,2013-08-08 14:27:00,
2013-08-08 10:29:00,70.1,66.0,29.98,NNE,21,1.5,5.8,87,0.00,CLR,,0.00,WeatherDisplay:10.37,2013-08-08 14:29:00,
2013-08-08 10:30:00,70.1,66.0,29.98,NE,42,1.0,3.5,87,0.00,CLR,,0.00,WeatherDisplay:10.37,2013-08-08 14:30:00,
2013-08-08 10:31:00,70.1,66.4,29.98,NNE,31,1.5,4.0,88,0.00,CLR,,0.00,WeatherDisplay:10.37,2013-08-08 14:31:00,
2013-08-08 10:32:00,70.1,66.0,29.98,NNE,22,1.4,8.1,87,0.00,CLR,,0.00,WeatherDisplay:10.37,2013-08-08 14:32:00,
2013-08-08 10:34:00,70.1,66.4,29.98,NNE,18,0.9,3.5,88,0.00,CLR,,0.00,WeatherDisplay:10.37,2013-08-08 14:34:00,
2013-08-08 10:35:00,70.1,66.0,29.98,NE,55,1.2,3.5,87,0.00,CLR,,0.00,WeatherDisplay:10.37,2013-08-08 14:35:00,
2013-08-08 10:36:00,70.1,66.0,29.98,NE,39,1.3,4.0,87,0.00,CLR,,0.00,WeatherDisplay:10.37,2013-08-08 14:36:00,
2013-08-08 10:37:00,70.1,66.0,29.98,NE,44,1.9,3.5,87,0.00,CLR,,0.00,WeatherDisplay:10.37,2013-08-08 14:37:00,
2013-08-08 10:39:00,70.1,66.0,29.98,ENE,75,2.9,4.0,87,0.00,CLR,,0.00,WeatherDisplay:10.37,2013-08-08 14:39:00,
2013-08-08 10:41:00,70.1,66.0,29.98,NE,44,3.5,6.9,87,0.00,CLR,,0.00,WeatherDisplay:10.37,2013-08-08 14:41:00,
2013-08-08 10:42:00,70.1,66.0,29.98,East,87,2.0,4.6,87,0.00,CLR,,0.00,WeatherDisplay:10.37,2013-08-08 14:42:00,
2013-08-08 10:44:00,70.3,66.9,29.98,NE,51,1.1,1.1,89,0.00,CLR,,0.00,WeatherDisplay:10.37,2013-08-08 14:44:00,
2013-08-08 10:46:00,70.5,66.4,29.98,ENE,57,3.7,5.0,87,0.00,CLR,,0.00,WeatherDisplay:10.37,2013-08-08 14:46:00,
2013-08-08 10:48:00,70.7,67.0,29.98,ESE,107,1.2,4.0,88,0.00,CLR,,0.00,WeatherDisplay:10.37,2013-08-08 14:48:00,
2013-08-08 10:49:00,70.8,66.7,29.98,ENE,73,0.9,3.5,87,0.00,CLR,,0.00,WeatherDisplay:10.37,2013-08-08 14:49:00,
2013-08-08 10:51:00,70.8,67.1,29.98,North,5,0.2,3.5,88,0.00,CLR,,0.00,WeatherDisplay:10.37,2013-08-08 14:51:00,
2013-08-08 10:52:00,70.8,67.1,29.98,North,5,0.1,3.5,88,0.00,CLR,,0.00,WeatherDisplay:10.37,2013-08-08 14:52:00,
2013-08-08 10:53:00,70.9,67.2,29.98,NE,34,1.0,2.3,88,0.00,CLR,,0.00,WeatherDisplay:10.37,2013-08-08 14:53:00,
2013-08-08 10:55:00,71.0,67.3,29.98,NE,35,0.0,4.0,88,0.00,CLR,,0.00,WeatherDisplay:10.37,2013-08-08 14:55:00,
2013-08-08 10:56:00,71.0,67.3,29.98,NNE,31,0.7,3.5,88,0.00,CLR,,0.00,WeatherDisplay:10.37,2013-08-08 14:56:00,
2013-08-08 10:57:00,71.1,67.0,29.98,East,81,1.3,5.0,87,0.00,CLR,,0.00,WeatherDisplay:10.37,2013-08-08 14:57:00,
2013-08-08 10:58:00,71.1,67.0,29.98,NNW,343,0.5,4.6,87,0.00,CLR,,0.00,WeatherDisplay:10.37,2013-08-08 14:58:00,
2013-08-08 11:00:00,71.1,67.0,29.98,NNE,17,0.0,5.0,87,0.00,CLR,,0.00,WeatherDisplay:10.37,2013-08-08 15:00:00,
2013-08-08 11:02:00,71.2,67.5,29.98,NNE,28,0.3,3.5,88,0.00,CLR,,0.00,WeatherDisplay:10.37,2013-08-08 15:02:00,
2013-08-08 11:03:00,71.2,67.1,29.98,NW,323,1.0,3.5,87,0.00,CLR,,0.00,WeatherDisplay:10.37,2013-08-08 15:03:00,
2013-08-08 11:05:00,71.3,67.6,29.98,WNW,295,0.4,2.3,88,0.00,CLR,,0.00,WeatherDisplay:10.37,2013-08-08 15:05:00,
2013-08-08 11:07:00,71.3,66.9,29.98,NE,40,1.8,6.9,86,0.00,CLR,,0.00,WeatherDisplay:10.37,2013-08-08 15:07:00,
2013-08-08 11:08:00,71.3,67.2,29.98,NW,311,0.7,2.3,87,0.00,CLR,,0.00,WeatherDisplay:10.37,2013-08-08 15:08:00,
2013-08-08 11:10:00,71.3,66.9,29.98,North,355,0.4,1.1,86,0.00,CLR,,0.00,WeatherDisplay:10.37,2013-08-08 15:10:00,
2013-08-08 11:12:00,71.5,67.4,29.98,North,355,1.2,3.5,87,0.00,CLR,,0.00,WeatherDisplay:10.37,2013-08-08 15:12:00,
2013-08-08 11:13:00,71.5,67.1,29.98,NW,326,1.2,3.5,86,0.00,CLR,,0.00,WeatherDisplay:10.37,2013-08-08 15:13:00,
2013-08-08 11:15:00,71.6,67.2,29.98,NE,44,0.0,1.1,86,0.00,CLR,,0.00,WeatherDisplay:10.37,2013-08-08 15:15:00,
2013-08-08 11:17:00,71.8,67.4,29.98,North,5,1.9,6.9,86,0.00,CLR,,0.00,WeatherDisplay:10.37,2013-08-08 15:17:00,
2013-08-08 11:18:00,71.8,67.4,29.99,NNE,17,1.0,6.9,86,0.00,CLR,,0.00,WeatherDisplay:10.37,2013-08-08 15:18:00,
2013-08-08 11:19:00,71.9,67.5,29.98,East,100,0.6,6.0,86,0.00,CLR,,0.00,WeatherDisplay:10.37,2013-08-08 15:19:00,
2013-08-08 11:20:00,71.9,67.1,29.99,ENE,67,4.1,6.9,85,0.00,CLR,,0.00,WeatherDisplay:10.37,2013-08-08 15:20:00,
2013-08-08 11:22:00,71.8,66.7,29.98,NE,43,2.9,8.1,84,0.00,CLR,,0.00,WeatherDisplay:10.37,2013-08-08 15:22:00,
2013-08-08 11:23:00,71.8,66.7,29.98,NE,43,2.2,6.9,84,0.00,CLR,,0.00,WeatherDisplay:10.37,2013-08-08 15:23:00,
2013-08-08 11:24:00,71.8,67.4,29.98,ENE,68,0.9,3.5,86,0.00,CLR,,0.00,WeatherDisplay:10.37,2013-08-08 15:24:00,
2013-08-08 11:25:00,71.8,67.0,29.98,North,360,1.0,3.5,85,0.00,CLR,,0.00,WeatherDisplay:10.37,2013-08-08 15:25:00,
2013-08-08 11:28:00,71.8,67.7,29.98,NNE,28,0.1,1.1,87,0.00,CLR,,0.00,WeatherDisplay:10.37,2013-08-08 15:28:00,
2013-08-08 11:29:00,71.9,67.8,29.98,ENE,61,1.0,3.5,87,0.00,CLR,,0.00,WeatherDisplay:10.37,2013-08-08 15:29:00,
2013-08-08 11:31:00,71.9,67.1,29.98,NE,45,1.0,3.5,85,0.00,CLR,,0.00,WeatherDisplay:10.37,2013-08-08 15:31:00,
2013-08-08 11:33:00,71.9,67.1,29.98,ENE,78,2.8,4.6,85,0.00,CLR,,0.00,WeatherDisplay:10.37,2013-08-08 15:33:00,
2013-08-08 11:34:00,71.9,67.1,29.98,ESE,110,3.8,5.0,85,0.00,CLR,,0.00,WeatherDisplay:10.37,2013-08-08 15:34:00,
2013-08-08 11:36:00,71.9,67.1,29.98,ENE,61,2.2,3.5,85,0.00,CLR,,0.00,WeatherDisplay:10.37,2013-08-08 15:36:00,
2013-08-08 11:38:00,71.9,67.1,29.98,NE,55,4.0,9.2,85,0.00,CLR,,0.00,WeatherDisplay:10.37,2013-08-08 15:38:00,
2013-08-08 11:39:00,71.9,67.1,29.98,East,88,3.6,5.8,85,0.00,CLR,,0.00,WeatherDisplay:10.37,2013-08-08 15:39:00,
2013-08-08 11:40:00,71.9,67.1,29.98,ENE,57,3.0,5.8,85,0.00,CLR,,0.00,WeatherDisplay:10.37,2013-08-08 15:40:00,
2013-08-08 11:41:00,71.9,67.5,29.98,ESE,104,3.0,4.6,86,0.00,CLR,,0.00,WeatherDisplay:10.37,2013-08-08 15:41:00,
2013-08-08 11:43:00,71.9,66.8,29.98,ENE,74,5.0,8.1,84,0.00,CLR,,0.00,WeatherDisplay:10.37,2013-08-08 15:43:00,
2013-08-08 11:44:00,71.9,66.8,29.98,ESE,123,4.3,6.9,84,0.00,CLR,,0.00,WeatherDisplay:10.37,2013-08-08 15:44:00,
2013-08-08 11:45:00,71.9,67.1,29.98,ENE,59,3.0,8.1,85,0.00,CLR,,0.00,WeatherDisplay:10.37,2013-08-08 15:45:00,
2013-08-08 11:46:00,71.9,67.1,29.98,ENE,76,3.2,4.6,85,0.00,CLR,,0.00,WeatherDisplay:10.37,2013-08-08 15:46:00,
2013-08-08 11:49:00,72.1,67.7,29.99,North,360,1.2,2.3,86,0.00,CLR,,0.00,WeatherDisplay:10.37,2013-08-08 15:49:00,
2013-08-08 11:50:00,72.1,67.3,29.99,East,82,1.5,3.5,85,0.00,CLR,,0.00,WeatherDisplay:10.37,2013-08-08 15:50:00,
2013-08-08 11:51:00,72.2,67.1,29.99,ENE,70,1.9,3.5,84,0.00,CLR,,0.00,WeatherDisplay:10.37,2013-08-08 15:51:00,
2013-08-08 11:54:00,72.4,68.0,29.99,NNE,26,0.3,2.3,86,0.00,CLR,,0.00,WeatherDisplay:10.37,2013-08-08 15:54:00,
2013-08-08 11:55:00,72.5,68.1,29.99,North,5,0.3,2.3,86,0.00,CLR,,0.00,WeatherDisplay:10.37,2013-08-08 15:55:00,
2013-08-08 11:56:00,72.6,68.5,29.99,North,5,0.0,0.0,87,0.00,CLR,,0.00,WeatherDisplay:10.37,2013-08-08 15:56:00,
2013-08-08 11:59:00,73.0,67.9,29.99,NE,49,0.8,3.5,84,0.00,CLR,,0.00,WeatherDisplay:10.37,2013-08-08 15:59:00,
2013-08-08 12:00:00,73.0,68.2,29.99,NE,51,0.3,1.1,85,0.00,CLR,,0.00,WeatherDisplay:10.37,2013-08-08 16:00:00,
2013-08-08 12:01:00,73.1,68.0,29.99,NE,51,0.0,0.0,84,0.00,CLR,,0.00,WeatherDisplay:10.37,2013-08-08 16:01:00,
2013-08-08 12:04:00,73.2,67.4,29.99,ESE,107,0.8,2.3,82,0.00,CLR,,0.00,WeatherDisplay:10.37,2013-08-08 16:04:00,
2013-08-08 12:05:00,73.2,67.7,29.99,East,93,2.4,3.5,83,0.00,CLR,,0.00,WeatherDisplay:10.37,2013-08-08 16:05:00,
2013-08-08 12:06:00,73.1,67.6,29.99,ENE,75,3.4,5.0,83,0.00,CLR,,0.00,WeatherDisplay:10.37,2013-08-08 16:06:00,
2013-08-08 12:07:00,73.1,67.6,29.99,ESE,105,3.8,4.6,83,0.00,CLR,,0.00,WeatherDisplay:10.37,2013-08-08 16:07:00,
2013-08-08 12:09:00,73.0,67.9,29.99,East,98,1.6,3.5,84,0.00,CLR,,0.00,WeatherDisplay:10.37,2013-08-08 16:09:00,
2013-08-08 12:11:00,73.0,67.5,29.99,ENE,77,3.4,5.8,83,0.00,CLR,,0.00,WeatherDisplay:10.37,2013-08-08 16:11:00,
2013-08-08 12:12:00,72.9,67.4,29.99,ENE,67,2.9,4.6,83,0.00,CLR,,0.00,WeatherDisplay:10.37,2013-08-08 16:12:00,
2013-08-08 12:14:00,73.1,68.3,29.99,NE,36,0.3,1.1,85,0.00,CLR,,0.00,WeatherDisplay:10.37,2013-08-08 16:14:00,
2013-08-08 12:15:00,73.1,68.3,29.99,NE,40,0.3,2.0,85,0.00,CLR,,0.00,WeatherDisplay:10.37,2013-08-08 16:15:00,
2013-08-08 12:16:00,73.2,68.4,29.99,NNE,18,0.4,2.3,85,0.00,CLR,,0.00,WeatherDisplay:10.37,2013-08-08 16:16:00,
2013-08-08 12:17:00,73.4,69.0,29.99,North,355,0.3,1.1,86,0.00,CLR,,0.00,WeatherDisplay:10.37,2013-08-08 16:17:00,
2013-08-08 12:19:00,73.8,69.0,29.99,NE,36,0.6,1.1,85,0.00,CLR,,0.00,WeatherDisplay:10.37,2013-08-08 16:19:00,
2013-08-08 12:20:00,74.0,68.9,29.99,North,355,1.0,2.3,84,0.00,CLR,,0.00,WeatherDisplay:10.37,2013-08-08 16:20:00,
2013-08-08 12:21:00,74.1,69.0,29.99,NNE,24,0.4,2.3,84,0.00,CLR,,0.00,WeatherDisplay:10.37,2013-08-08 16:21:00,
2013-08-08 12:22:00,74.3,69.1,29.99,NNE,23,0.5,1.1,84,0.00,CLR,,0.00,WeatherDisplay:10.37,2013-08-08 16:22:00,
2013-08-08 12:23:00,74.4,68.5,29.99,North,355,0.4,2.3,82,0.00,CLR,,0.00,WeatherDisplay:10.37,2013-08-08 16:23:00,
2013-08-08 12:24:00,74.7,68.8,29.99,NNE,28,0.3,1.1,82,0.00,CLR,,0.00,WeatherDisplay:10.37,2013-08-08 16:24:00,
2013-08-08 12:26:00,74.8,68.9,29.99,ENE,73,0.4,2.3,82,0.00,CLR,,0.00,WeatherDisplay:10.37,2013-08-08 16:26:00,
2013-08-08 12:27:00,75.0,69.5,29.99,North,5,0.7,2.3,83,0.00,CLR,,0.00,WeatherDisplay:10.37,2013-08-08 16:27:00,
2013-08-08 12:28:00,75.1,68.5,29.99,NNW,344,0.9,2.3,80,0.00,CLR,,0.00,WeatherDisplay:10.37,2013-08-08 16:28:00,
2013-08-08 12:29:00,75.2,69.3,29.99,NNE,19,0.4,3.5,82,0.00,CLR,,0.00,WeatherDisplay:10.37,2013-08-08 16:29:00,
2013-08-08 12:31:00,75.3,69.4,29.99,North,5,1.0,2.0,82,0.00,CLR,,0.00,WeatherDisplay:10.37,2013-08-08 16:31:00,
2013-08-08 12:32:00,75.3,68.3,29.99,NNE,13,0.4,2.3,79,0.00,CLR,,0.00,WeatherDisplay:10.37,2013-08-08 16:32:00,
2013-08-08 12:33:00,75.3,69.1,29.99,NNE,14,0.0,1.1,81,0.00,CLR,,0.00,WeatherDisplay:10.37,2013-08-08 16:33:00,
2013-08-08 12:35:00,75.3,69.1,29.99,NNE,14,0.1,1.1,81,0.00,CLR,,0.00,WeatherDisplay:10.37,2013-08-08 16:35:00,
2013-08-08 12:36:00,75.4,69.2,29.99,NNE,14,0.2,1.1,81,0.00,CLR,,0.00,WeatherDisplay:10.37,2013-08-08 16:36:00,
2013-08-08 12:37:00,75.4,69.2,29.99,NNE,14,0.1,1.1,81,0.00,CLR,,0.00,WeatherDisplay:10.37,2013-08-08 16:37:00,
2013-08-08 12:38:00,75.4,69.2,29.99,NNE,15,0.3,1.1,81,0.00,CLR,,0.00,WeatherDisplay:10.37,2013-08-08 16:38:00,
2013-08-08 12:39:00,75.5,68.9,29.99,NNE,15,0.1,1.1,80,0.00,CLR,,0.00,WeatherDisplay:10.37,2013-08-08 16:39:00,
2013-08-08 12:40:00,75.5,69.3,29.99,ENE,59,0.3,2.3,81,0.00,CLR,,0.00,WeatherDisplay:10.37,2013-08-08 16:40:00,
2013-08-08 12:41:00,75.4,68.4,29.99,North,10,0.7,2.0,79,0.00,CLR,,0.00,WeatherDisplay:10.37,2013-08-08 16:41:00,
2013-08-08 12:42:00,75.4,68.8,29.99,NNE,21,1.0,2.3,80,0.00,CLR,,0.00,WeatherDisplay:10.37,2013-08-08 16:42:00,
2013-08-08 12:44:00,75.4,68.8,29.99,NNE,22,0.2,1.1,80,0.00,CLR,,0.00,WeatherDisplay:10.37,2013-08-08 16:44:00,
2013-08-08 12:45:00,75.3,69.4,29.99,NNE,22,0.0,1.1,82,0.00,CLR,,0.00,WeatherDisplay:10.37,2013-08-08 16:45:00,
2013-08-08 12:46:00,75.3,69.1,29.99,NNE,17,0.6,2.0,81,0.00,CLR,,0.00,WeatherDisplay:10.37,2013-08-08 16:46:00,
2013-08-08 12:47:00,75.3,68.7,29.99,NNE,26,1.0,2.3,80,0.00,CLR,,0.00,WeatherDisplay:10.37,2013-08-08 16:47:00,
2013-08-08 12:49:00,75.3,69.4,29.99,NNE,26,0.0,0.0,82,0.00,CLR,,0.00,WeatherDisplay:10.37,2013-08-08 16:49:00,
2013-08-08 12:50:00,75.3,69.4,29.99,NNE,30,0.3,1.1,82,0.00,CLR,,0.00,WeatherDisplay:10.37,2013-08-08 16:50:00,
2013-08-08 12:51:00,75.3,69.4,29.99,NNE,23,0.0,2.3,82,0.00,CLR,,0.00,WeatherDisplay:10.37,2013-08-08 16:51:00,
2013-08-08 12:53:00,75.3,68.7,29.99,North,360,0.5,2.3,80,0.00,CLR,,0.00,WeatherDisplay:10.37,2013-08-08 16:53:00,
2013-08-08 12:54:00,75.4,69.2,29.99,North,360,0.1,1.1,81,0.00,CLR,,0.00,WeatherDisplay:10.37,2013-08-08 16:54:00,
2013-08-08 12:55:00,75.5,69.3,29.99,North,9,0.0,1.1,81,0.00,CLR,,0.00,WeatherDisplay:10.37,2013-08-08 16:55:00,
2013-08-08 12:56:00,75.7,70.5,29.99,NNW,348,0.1,1.1,84,0.00,CLR,,0.00,WeatherDisplay:10.37,2013-08-08 16:56:00,
2013-08-08 12:58:00,76.0,70.8,29.99,NNE,32,1.6,2.3,84,0.00,CLR,,0.00,WeatherDisplay:10.37,2013-08-08 16:58:00,
2013-08-08 12:59:00,76.1,70.6,29.99,NE,36,0.8,3.5,83,0.00,CLR,,0.00,WeatherDisplay:10.37,2013-08-08 16:59:00,
2013-08-08 13:00:00,76.3,70.0,29.99,North,11,0.4,1.1,81,0.00,CLR,,0.00,WeatherDisplay:10.37,2013-08-08 17:00:00,
2013-08-08 13:02:00,76.4,70.1,29.99,NNE,32,1.1,2.3,81,0.00,CLR,,0.00,WeatherDisplay:10.37,2013-08-08 17:02:00,
2013-08-08 13:03:00,76.5,69.9,29.99,North,5,0.5,2.3,80,0.00,CLR,,0.00,WeatherDisplay:10.37,2013-08-08 17:03:00,
2013-08-08 13:04:00,76.6,69.6,29.98,NNW,341,0.9,1.1,79,0.00,CLR,,0.00,WeatherDisplay:10.37,2013-08-08 17:04:00,
2013-08-08 13:05:00,76.6,69.6,29.98,North,11,1.0,3.0,79,0.00,CLR,,0.00,WeatherDisplay:10.37,2013-08-08 17:05:00,
2013-08-08 13:06:00,76.9,70.3,29.98,NNE,22,0.3,3.5,80,0.00,CLR,,0.00,WeatherDisplay:10.37,2013-08-08 17:06:00,
2013-08-08 13:07:00,77.0,70.4,29.98,North,5,0.2,2.0,80,0.00,CLR,,0.00,WeatherDisplay:10.37,2013-08-08 17:07:00,
2013-08-08 13:08:00,77.2,70.9,29.98,North,355,1.0,2.3,81,0.00,CLR,,0.00,WeatherDisplay:10.37,2013-08-08 17:08:00,
2013-08-08 13:09:00,77.3,70.3,29.98,ENE,57,1.3,2.3,79,0.00,CLR,,0.00,WeatherDisplay:10.37,2013-08-08 17:09:00,
2013-08-08 13:10:00,77.3,69.9,29.98,NNE,25,0.9,3.5,78,0.00,CLR,,0.00,WeatherDisplay:10.37,2013-08-08 17:10:00,
2013-08-08 13:11:00,77.2,69.4,29.98,NE,56,4.0,4.6,77,0.00,CLR,,0.00,WeatherDisplay:10.37,2013-08-08 17:11:00,
2013-08-08 13:12:00,77.0,69.2,29.98,NE,42,1.9,6.9,77,0.00,CLR,,0.00,WeatherDisplay:10.37,2013-08-08 17:12:00,
2013-08-08 13:13:00,76.7,68.6,29.98,NE,53,3.4,3.5,76,0.00,CLR,,0.00,WeatherDisplay:10.37,2013-08-08 17:13:00,
2013-08-08 13:14:00,76.4,68.7,29.98,NNE,31,0.4,5.8,77,0.00,CLR,,0.00,WeatherDisplay:10.37,2013-08-08 17:14:00,
2013-08-08 13:15:00,76.2,69.2,29.98,North,360,0.0,1.1,79,0.00,CLR,,0.00,WeatherDisplay:10.37,2013-08-08 17:15:00,
2013-08-08 13:16:00,76.2,69.6,29.98,NNE,23,0.2,1.1,80,0.00,CLR,,0.00,WeatherDisplay:10.37,2013-08-08 17:16:00,
2013-08-08 13:18:00,76.1,69.5,29.98,NNE,17,0.7,2.3,80,0.00,CLR,,0.00,WeatherDisplay:10.37,2013-08-08 17:18:00,
2013-08-08 13:19:00,76.1,69.5,29.98,NNE,13,0.8,2.3,80,0.00,CLR,,0.00,WeatherDisplay:10.37,2013-08-08 17:19:00,
2013-08-08 13:20:00,76.1,69.1,29.98,NNE,13,0.1,1.1,79,0.00,CLR,,0.00,WeatherDisplay:10.37,2013-08-08 17:20:00,
2013-08-08 13:21:00,76.1,69.1,29.98,ENE,78,0.7,1.1,79,0.00,CLR,,0.00,WeatherDisplay:10.37,2013-08-08 17:21:00,
2013-08-08 13:22:00,76.1,69.1,29.98,North,355,0.4,1.1,79,0.00,CLR,,0.00,WeatherDisplay:10.37,2013-08-08 17:22:00,
2013-08-08 13:23:00,76.0,69.0,29.98,NE,49,1.4,3.5,79,0.00,CLR,,0.00,WeatherDisplay:10.37,2013-08-08 17:23:00,
2013-08-08 13:24:00,75.9,69.3,29.97,NNE,31,0.4,2.3,80,0.00,CLR,,0.00,WeatherDisplay:10.37,2013-08-08 17:24:00,
2013-08-08 13:25:00,75.9,69.3,29.97,NNE,19,0.8,2.3,80,0.00,CLR,,0.00,WeatherDisplay:10.37,2013-08-08 17:25:00,
2013-08-08 13:26:00,75.8,69.2,29.98,NNE,17,0.3,1.1,80,0.00,CLR,,0.00,WeatherDisplay:10.37,2013-08-08 17:26:00,
2013-08-08 13:27:00,75.8,69.2,29.97,NNE,17,0.3,2.3,80,0.00,CLR,,0.00,WeatherDisplay:10.37,2013-08-08 17:27:00,
2013-08-08 13:28:00,75.8,69.2,29.97,NNE,17,0.2,1.1,80,0.00,CLR,,0.00,WeatherDisplay:10.37,2013-08-08 17:28:00,
2013-08-08 13:30:00,75.7,68.7,29.98,ENE,59,0.4,3.5,79,0.00,CLR,,0.00,WeatherDisplay:10.37,2013-08-08 17:30:00,
2013-08-08 13:31:00,75.8,69.6,29.98,NE,53,0.3,1.1,81,0.00,CLR,,0.00,WeatherDisplay:10.37,2013-08-08 17:31:00,
2013-08-08 13:32:00,75.7,69.5,29.98,NNE,22,0.7,2.3,81,0.00,CLR,,0.00,WeatherDisplay:10.37,2013-08-08 17:32:00,
2013-08-08 13:33:00,75.7,68.7,29.98,NE,41,0.7,2.3,79,0.00,CLR,,0.00,WeatherDisplay:10.37,2013-08-08 17:33:00,
2013-08-08 13:35:00,75.7,69.1,29.97,NE,41,0.0,0.0,80,0.00,CLR,,0.00,WeatherDisplay:10.37,2013-08-08 17:35:00,
2013-08-08 13:36:00,75.8,69.6,29.97,North,360,0.8,3.5,81,0.00,CLR,,0.00,WeatherDisplay:10.37,2013-08-08 17:36:00,
2013-08-08 13:37:00,75.8,68.8,29.97,NE,40,0.0,3.5,79,0.00,CLR,,0.00,WeatherDisplay:10.37,2013-08-08 17:37:00,
2013-08-08 13:38:00,75.9,69.6,29.97,NE,46,0.4,1.1,81,0.00,CLR,,0.00,WeatherDisplay:10.37,2013-08-08 17:38:00,
2013-08-08 13:40:00,76.0,69.7,29.97,NNE,24,0.9,2.3,81,0.00,CLR,,0.00,WeatherDisplay:10.37,2013-08-08 17:40:00,
2013-08-08 13:41:00,76.2,70.7,29.97,NNE,24,0.3,2.0,83,0.00,CLR,,0.00,WeatherDisplay:10.37,2013-08-08 17:41:00,
2013-08-08 13:42:00,76.3,70.4,29.97,NNW,327,0.5,2.3,82,0.00,CLR,,0.00,WeatherDisplay:10.37,2013-08-08 17:42:00,
2013-08-08 13:43:00,76.4,69.8,29.97,North,355,0.2,1.1,80,0.00,CLR,,0.00,WeatherDisplay:10.37,2013-08-08 17:43:00,
2013-08-08 13:45:00,76.7,70.8,29.97,NNE,20,0.7,3.5,82,0.00,CLR,,0.00,WeatherDisplay:10.37,2013-08-08 17:45:00,
2013-08-08 13:46:00,76.9,70.3,29.97,ENE,76,1.2,5.0,80,0.00,CLR,,0.00,WeatherDisplay:10.37,2013-08-08 17:46:00,
2013-08-08 13:48:00,76.8,69.8,29.97,ENE,76,1.8,6.9,79,0.00,CLR,,0.00,WeatherDisplay:10.37,2013-08-08 17:48:00,
2013-08-08 13:50:00,76.6,69.6,29.97,NE,49,0.9,4.6,79,0.00,CLR,,0.00,WeatherDisplay:10.37,2013-08-08 17:50:00,
2013-08-08 13:51:00,76.5,70.6,29.97,NNE,30,0.7,2.3,82,0.00,CLR,,0.00,WeatherDisplay:10.37,2013-08-08 17:51:00,
2013-08-08 13:54:00,76.4,69.4,29.97,ENE,60,3.4,4.6,79,0.00,CLR,,0.00,WeatherDisplay:10.37,2013-08-08 17:54:00,
2013-08-08 13:55:00,76.2,69.6,29.97,NE,42,2.9,5.8,80,0.00,CLR,,0.00,WeatherDisplay:10.37,2013-08-08 17:55:00,
2013-08-08 13:56:00,76.1,69.8,29.97,NE,46,1.2,4.6,81,0.00,CLR,,0.00,WeatherDisplay:10.37,2013-08-08 17:56:00,
2013-08-08 13:59:00,76.0,69.0,29.97,ENE,77,2.3,3.5,79,0.00,CLR,,0.00,WeatherDisplay:10.37,2013-08-08 17:59:00,
2013-08-08 14:01:00,76.0,70.1,29.97,North,5,0.4,1.1,82,0.00,CLR,,0.00,WeatherDisplay:10.37,2013-08-08 18:01:00,
2013-08-08 14:04:00,76.2,69.9,29.97,NNE,17,0.0,0.0,81,0.00,CLR,,0.00,WeatherDisplay:10.37,2013-08-08 18:04:00,
2013-08-08 14:05:00,76.3,71.1,29.97,NNE,17,0.0,1.0,84,0.00,CLR,,0.00,WeatherDisplay:10.37,2013-08-08 18:05:00,
2013-08-08 14:06:00,76.5,70.9,29.97,NNE,17,0.2,1.1,83,0.00,CLR,,0.00,WeatherDisplay:10.37,2013-08-08 18:06:00,
2013-08-08 14:07:00,76.6,71.0,29.97,NNE,17,0.0,1.1,83,0.00,CLR,,0.00,WeatherDisplay:10.37,2013-08-08 18:07:00,
2013-08-08 14:09:00,76.8,69.8,29.97,North,355,1.1,3.5,79,0.00,CLR,,0.00,WeatherDisplay:10.37,2013-08-08 18:09:00,
2013-08-08 14:10:00,76.8,70.2,29.97,North,355,0.5,2.3,80,0.00,CLR,,0.00,WeatherDisplay:10.37,2013-08-08 18:10:00,
2013-08-08 14:11:00,76.9,70.6,29.97,NE,52,0.3,2.0,81,0.00,CLR,,0.00,WeatherDisplay:10.37,2013-08-08 18:11:00,
2013-08-08 14:12:00,77.0,71.1,29.97,East,86,1.8,3.5,82,0.00,CLR,,0.00,WeatherDisplay:10.37,2013-08-08 18:12:00,
2013-08-08 14:14:00,77.0,70.0,29.97,East,88,1.2,3.5,79,0.00,CLR,,0.00,WeatherDisplay:10.37,2013-08-08 18:14:00,
2013-08-08 14:15:00,76.9,69.5,29.97,ENE,59,1.3,3.5,78,0.00,CLR,,0.00,WeatherDisplay:10.37,2013-08-08 18:15:00,
2013-08-08 14:16:00,76.9,69.5,29.97,ENE,59,0.5,2.3,78,0.00,CLR,,0.00,WeatherDisplay:10.37,2013-08-08 18:16:00,
2013-08-08 14:17:00,76.8,69.4,29.97,East,94,0.6,1.1,78,0.00,CLR,,0.00,WeatherDisplay:10.37,2013-08-08 18:17:00,
2013-08-08 14:20:00,76.6,70.0,29.97,NE,46,0.1,1.1,80,0.00,CLR,,0.00,WeatherDisplay:10.37,2013-08-08 18:20:00,
2013-08-08 14:21:00,76.6,70.3,29.97,NE,38,0.1,1.1,81,0.00,CLR,,0.00,WeatherDisplay:10.37,2013-08-08 18:21:00,
2013-08-08 14:22:00,76.7,70.1,29.97,NNE,32,0.0,0.0,80,0.00,CLR,,0.00,WeatherDisplay:10.37,2013-08-08 18:22:00,
2013-08-08 14:25:00,76.7,69.7,29.97,North,5,0.3,2.3,79,0.00,CLR,,0.00,WeatherDisplay:10.37,2013-08-08 18:25:00,
2013-08-08 14:26:00,76.8,69.4,29.97,North,351,0.5,2.0,78,0.00,CLR,,0.00,WeatherDisplay:10.37,2013-08-08 18:26:00,
2013-08-08 14:27:00,76.9,69.9,29.97,North,5,0.1,2.3,79,0.00,CLR,,0.00,WeatherDisplay:10.37,2013-08-08 18:27:00,
2013-08-08 14:31:00,77.1,69.7,29.97,North,355,0.1,1.1,78,0.00,CLR,,0.00,WeatherDisplay:10.37,2013-08-08 18:31:00,
2013-08-08 14:32:00,77.3,70.3,29.97,North,360,0.1,1.1,79,0.00,CLR,,0.00,WeatherDisplay:10.37,2013-08-08 18:32:00,
2013-08-08 14:33:00,77.3,70.6,29.97,North,360,0.0,0.0,80,0.00,CLR,,0.00,WeatherDisplay:10.37,2013-08-08 18:33:00,
2013-08-08 14:36:00,77.7,69.9,29.97,ENE,71,1.0,2.3,77,0.00,CLR,,0.00,WeatherDisplay:10.37,2013-08-08 18:36:00,
2013-08-08 14:37:00,77.7,69.5,29.97,ENE,59,2.0,2.3,76,0.00,CLR,,0.00,WeatherDisplay:10.37,2013-08-08 18:37:00,
2013-08-08 14:38:00,77.6,69.8,29.97,North,349,0.9,3.5,77,0.00,CLR,,0.00,WeatherDisplay:10.37,2013-08-08 18:38:00,
2013-08-08 14:39:00,77.7,70.3,29.97,NNE,31,1.0,4.0,78,0.00,CLR,,0.00,WeatherDisplay:10.37,2013-08-08 18:39:00,
2013-08-08 14:41:00,77.6,70.6,29.97,North,351,0.8,3.5,79,0.00,CLR,,0.00,WeatherDisplay:10.37,2013-08-08 18:41:00,
2013-08-08 14:43:00,77.6,70.6,29.97,NNW,338,1.7,2.3,79,0.00,CLR,,0.00,WeatherDisplay:10.37,2013-08-08 18:43:00,
2013-08-08 14:44:00,77.6,70.2,29.97,North,5,0.3,2.3,78,0.00,CLR,,0.00,WeatherDisplay:10.37,2013-08-08 18:44:00,
2013-08-08 14:46:00,77.6,70.6,29.97,NNW,327,1.5,3.5,79,0.00,CLR,,0.00,WeatherDisplay:10.37,2013-08-08 18:46:00,
2013-08-08 14:48:00,77.6,70.6,29.97,NNE,21,2.1,3.0,79,0.00,CLR,,0.00,WeatherDisplay:10.37,2013-08-08 18:48:00,
2013-08-08 14:50:00,77.8,70.8,29.97,ENE,74,1.1,3.5,79,0.00,CLR,,0.00,WeatherDisplay:10.37,2013-08-08 18:50:00,
2013-08-08 14:51:00,77.7,69.5,29.97,ENE,61,0.5,3.5,76,0.00,CLR,,0.00,WeatherDisplay:10.37,2013-08-08 18:51:00,
2013-08-08 14:53:00,77.7,70.3,29.97,NNE,12,0.1,2.3,78,0.00,CLR,,0.00,WeatherDisplay:10.37,2013-08-08 18:53:00,
2013-08-08 14:54:00,77.7,70.3,29.97,NNE,12,0.1,1.1,78,0.00,CLR,,0.00,WeatherDisplay:10.37,2013-08-08 18:54:00,
2013-08-08 14:55:00,77.7,69.9,29.97,NE,36,0.6,2.3,77,0.00,CLR,,0.00,WeatherDisplay:10.37,2013-08-08 18:55:00,
2013-08-08 14:56:00,77.7,69.5,29.97,ENE,69,1.9,3.5,76,0.00,CLR,,0.00,WeatherDisplay:10.37,2013-08-08 18:56:00,
2013-08-08 14:57:00,77.7,69.5,29.97,ENE,69,1.3,3.5,76,0.00,CLR,,0.00,WeatherDisplay:10.37,2013-08-08 18:57:00,
2013-08-08 14:58:00,77.7,70.7,29.96,NNW,341,0.0,3.5,79,0.00,CLR,,0.00,WeatherDisplay:10.37,2013-08-08 18:58:00,
2013-08-08 14:59:00,77.7,70.3,29.96,NNW,342,0.7,3.5,78,0.00,CLR,,0.00,WeatherDisplay:10.37,2013-08-08 18:59:00,
2013-08-08 15:00:00,77.8,70.4,29.96,North,11,0.6,3.5,78,0.00,CLR,,0.00,WeatherDisplay:10.37,2013-08-08 19:00:00,
2013-08-08 15:01:00,77.9,70.9,29.96,NNE,13,0.1,1.1,79,0.00,CLR,,0.00,WeatherDisplay:10.37,2013-08-08 19:01:00,
2013-08-08 15:02:00,77.9,70.9,29.96,NE,45,0.4,1.1,79,0.00,CLR,,0.00,WeatherDisplay:10.37,2013-08-08 19:02:00,
2013-08-08 15:03:00,78.0,71.0,29.96,NNE,32,0.0,1.1,79,0.00,CLR,,0.00,WeatherDisplay:10.37,2013-08-08 19:03:00,
2013-08-08 15:04:00,78.0,70.6,29.96,NNE,14,0.8,2.3,78,0.00,CLR,,0.00,WeatherDisplay:10.37,2013-08-08 19:04:00,
2013-08-08 15:05:00,78.1,70.3,29.96,NE,38,0.5,3.5,77,0.00,CLR,,0.00,WeatherDisplay:10.37,2013-08-08 19:05:00,
2013-08-08 15:07:00,78.2,70.8,29.96,NNE,29,0.0,1.1,78,0.00,CLR,,0.00,WeatherDisplay:10.37,2013-08-08 19:07:00,
2013-08-08 15:08:00,78.2,70.8,29.96,NE,52,0.1,1.1,78,0.00,CLR,,0.00,WeatherDisplay:10.37,2013-08-08 19:08:00,
2013-08-08 15:09:00,78.3,71.6,29.96,NNE,32,0.3,1.1,80,0.00,CLR,,0.00,WeatherDisplay:10.37,2013-08-08 19:09:00,
2013-08-08 15:10:00,78.3,70.5,29.96,ENE,60,0.4,2.3,77,0.00,CLR,,0.00,WeatherDisplay:10.37,2013-08-08 19:10:00,
2013-08-08 15:12:00,78.2,70.8,29.96,North,5,0.4,3.0,78,0.00,CLR,,0.00,WeatherDisplay:10.37,2013-08-08 19:12:00,
2013-08-08 15:13:00,78.2,70.0,29.96,NE,34,0.7,3.5,76,0.00,CLR,,0.00,WeatherDisplay:10.37,2013-08-08 19:13:00,
2013-08-08 15:14:00,78.2,70.4,29.96,NNE,13,0.0,1.1,77,0.00,CLR,,0.00,WeatherDisplay:10.37,2013-08-08 19:14:00,
2013-08-08 15:16:00,78.2,70.0,29.95,NE,42,1.6,3.5,76,0.00,CLR,,0.00,WeatherDisplay:10.37,2013-08-08 19:16:00,
2013-08-08 15:18:00,78.1,70.7,29.95,NNE,15,0.3,1.1,78,0.00,CLR,,0.00,WeatherDisplay:10.37,2013-08-08 19:18:00,
2013-08-08 15:19:00,78.2,71.2,29.95,North,5,0.2,1.1,79,0.00,CLR,,0.00,WeatherDisplay:10.37,2013-08-08 19:19:00,
2013-08-08 15:21:00,78.3,71.2,29.95,NE,53,1.8,4.6,79,0.00,CLR,,0.00,WeatherDisplay:10.37,2013-08-08 19:21:00,
2013-08-08 15:23:00,78.5,70.7,29.95,NNW,334,1.0,3.5,77,0.00,CLR,,0.00,WeatherDisplay:10.37,2013-08-08 19:23:00,
2013-08-08 15:24:00,78.6,70.8,29.95,NE,44,0.9,2.3,77,0.00,CLR,,0.00,WeatherDisplay:10.37,2013-08-08 19:24:00,
2013-08-08 15:26:00,78.7,70.1,29.95,ENE,68,2.6,3.5,75,0.00,CLR,,0.00,WeatherDisplay:10.37,2013-08-08 19:26:00,
2013-08-08 15:28:00,78.5,70.7,29.95,ENE,76,1.2,5.0,77,0.00,CLR,,0.00,WeatherDisplay:10.37,2013-08-08 19:28:00,
2013-08-08 15:29:00,78.4,70.2,29.95,NE,49,0.6,5.8,76,0.00,CLR,,0.00,WeatherDisplay:10.37,2013-08-08 19:29:00,
2013-08-08 15:31:00,78.2,70.4,29.95,NNE,30,0.5,1.1,77,0.00,CLR,,0.00,WeatherDisplay:10.37,2013-08-08 19:31:00,
2013-08-08 15:33:00,78.1,69.9,29.95,NNE,28,0.3,2.3,76,0.00,CLR,,0.00,WeatherDisplay:10.37,2013-08-08 19:33:00,
2013-08-08 15:34:00,78.1,69.9,29.95,NNW,347,0.1,2.3,76,0.00,CLR,,0.00,WeatherDisplay:10.37,2013-08-08 19:34:00,
2013-08-08 15:36:00,78.1,69.9,29.95,North,350,0.2,1.1,76,0.00,CLR,,0.00,WeatherDisplay:10.37,2013-08-08 19:36:00,
2013-08-08 15:38:00,78.2,71.2,29.95,NNE,26,0.5,2.3,79,0.00,CLR,,0.00,WeatherDisplay:10.37,2013-08-08 19:38:00,
2013-08-08 15:39:00,78.2,70.4,29.95,NNE,25,0.7,2.3,77,0.00,CLR,,0.00,WeatherDisplay:10.37,2013-08-08 19:39:00,
2013-08-08 15:42:00,78.1,70.7,29.95,North,355,0.3,1.1,78,0.00,CLR,,0.00,WeatherDisplay:10.37,2013-08-08 19:42:00,
2013-08-08 15:43:00,78.2,70.4,29.95,North,11,0.3,2.3,77,0.00,CLR,,0.00,WeatherDisplay:10.37,2013-08-08 19:43:00,
2013-08-08 15:44:00,78.2,70.4,29.95,North,11,0.1,1.1,77,0.00,CLR,,0.00,WeatherDisplay:10.37,2013-08-08 19:44:00,
2013-08-08 15:47:00,78.2,71.2,29.95,NW,318,0.4,2.0,79,0.00,CLR,,0.00,WeatherDisplay:10.37,2013-08-08 19:47:00,
2013-08-08 15:49:00,78.4,70.6,29.95,NNW,336,0.1,1.1,77,0.00,CLR,,0.00,WeatherDisplay:10.37,2013-08-08 19:49:00,
2013-08-08 15:50:00,78.4,70.6,29.95,NNW,343,0.0,1.1,77,0.00,CLR,,0.00,WeatherDisplay:10.37,2013-08-08 19:50:00,
2013-08-08 15:54:00,78.7,70.5,29.94,NNE,26,0.3,1.1,76,0.00,CLR,,0.00,WeatherDisplay:10.37,2013-08-08 19:54:00,
2013-08-08 15:55:00,78.7,70.5,29.94,North,9,1.0,5.0,76,0.00,CLR,,0.00,WeatherDisplay:10.37,2013-08-08 19:55:00,
2013-08-08 15:58:00,78.5,70.3,29.95,ENE,72,0.7,8.1,76,0.00,CLR,,0.00,WeatherDisplay:10.37,2013-08-08 19:58:00,
2013-08-08 15:59:00,78.3,69.7,29.95,NE,54,1.0,2.3,75,0.00,CLR,,0.00,WeatherDisplay:10.37,2013-08-08 19:59:00,
2013-08-08 16:00:00,78.2,69.6,29.95,NE,50,0.5,3.0,75,0.00,CLR,,0.00,WeatherDisplay:10.37,2013-08-08 20:00:00,
2013-08-08 16:01:00,78.1,70.3,29.95,NNE,14,0.3,3.5,77,0.00,CLR,,0.00,WeatherDisplay:10.37,2013-08-08 20:01:00,
2013-08-08 16:03:00,78.0,70.2,29.95,North,355,0.1,1.1,77,0.00,CLR,,0.00,WeatherDisplay:10.37,2013-08-08 20:03:00,
2013-08-08 16:05:00,78.0,70.2,29.95,NNE,17,0.3,2.3,77,0.00,CLR,,0.00,WeatherDisplay:10.37,2013-08-08 20:05:00,
2013-08-08 16:06:00,78.0,70.2,29.95,NNE,27,0.5,1.1,77,0.00,CLR,,0.00,WeatherDisplay:10.37,2013-08-08 20:06:00,
2013-08-08 16:07:00,78.0,70.2,29.95,NNE,27,0.3,1.1,77,0.00,CLR,,0.00,WeatherDisplay:10.37,2013-08-08 20:07:00,
2013-08-08 16:09:00,78.1,70.3,29.95,NNE,31,0.1,1.1,77,0.00,CLR,,0.00,WeatherDisplay:10.37,2013-08-08 20:09:00,
2013-08-08 16:10:00,78.2,70.0,29.95,NNE,31,0.0,1.1,76,0.00,CLR,,0.00,WeatherDisplay:10.37,2013-08-08 20:10:00,
2013-08-08 16:11:00,78.2,70.0,29.95,NNE,32,0.0,0.0,76,0.00,CLR,,0.00,WeatherDisplay:10.37,2013-08-08 20:11:00,
2013-08-08 16:12:00,78.3,70.5,29.95,NNE,31,0.0,0.0,77,0.00,CLR,,0.00,WeatherDisplay:10.37,2013-08-08 20:12:00,
2013-08-08 16:14:00,78.5,70.3,29.95,North,360,0.6,1.1,76,0.00,CLR,,0.00,WeatherDisplay:10.37,2013-08-08 20:14:00,
2013-08-08 16:16:00,78.5,70.3,29.95,NNE,22,0.4,1.1,76,0.00,CLR,,0.00,WeatherDisplay:10.37,2013-08-08 20:16:00,
2013-08-08 16:17:00,78.6,70.4,29.95,NNE,14,0.1,1.1,76,0.00,CLR,,0.00,WeatherDisplay:10.37,2013-08-08 20:17:00,
2013-08-08 16:19:00,78.7,70.5,29.94,North,355,1.3,2.3,76,0.00,CLR,,0.00,WeatherDisplay:10.37,2013-08-08 20:19:00,
2013-08-08 16:21:00,78.7,70.9,29.94,NNE,25,0.8,2.3,77,0.00,CLR,,0.00,WeatherDisplay:10.37,2013-08-08 20:21:00,
2013-08-08 16:22:00,78.7,70.5,29.94,NNE,25,0.3,2.3,76,0.00,CLR,,0.00,WeatherDisplay:10.37,2013-08-08 20:22:00,
2013-08-08 16:25:00,78.7,70.1,29.95,ENE,62,0.8,2.3,75,0.00,CLR,,0.00,WeatherDisplay:10.37,2013-08-08 20:25:00,
2013-08-08 16:26:00,78.7,70.1,29.94,NE,55,1.8,3.5,75,0.00,CLR,,0.00,WeatherDisplay:10.37,2013-08-08 20:26:00,
2013-08-08 16:27:00,78.6,70.4,29.95,East,80,0.9,3.5,76,0.00,CLR,,0.00,WeatherDisplay:10.37,2013-08-08 20:27:00,
2013-08-08 16:30:00,78.4,70.2,29.95,East,82,1.9,3.5,76,0.00,CLR,,0.00,WeatherDisplay:10.37,2013-08-08 20:30:00,
2013-08-08 16:31:00,78.4,70.6,29.95,NE,46,0.8,3.5,77,0.00,CLR,,0.00,WeatherDisplay:10.37,2013-08-08 20:31:00,
2013-08-08 16:32:00,78.4,70.6,29.94,NE,44,0.5,1.1,77,0.00,CLR,,0.00,WeatherDisplay:10.37,2013-08-08 20:32:00,
2013-08-08 16:35:00,78.7,70.9,29.95,NNE,23,0.1,1.1,77,0.00,CLR,,0.00,WeatherDisplay:10.37,2013-08-08 20:35:00,
2013-08-08 16:36:00,78.9,71.5,29.95,NNE,17,0.2,1.1,78,0.00,CLR,,0.00,WeatherDisplay:10.37,2013-08-08 20:36:00,
2013-08-08 16:37:00,78.9,71.8,29.95,North,11,1.4,3.0,79,0.00,CLR,,0.00,WeatherDisplay:10.37,2013-08-08 20:37:00,
2013-08-08 16:40:00,79.4,70.8,29.94,NNW,331,0.3,1.1,75,0.00,CLR,,0.00,WeatherDisplay:10.37,2013-08-08 20:40:00,
2013-08-08 16:41:00,79.5,70.9,29.94,ENE,59,0.7,2.3,75,0.00,CLR,,0.00,WeatherDisplay:10.37,2013-08-08 20:41:00,
2013-08-08 16:42:00,79.5,70.9,29.94,ENE,74,1.2,5.0,75,0.00,CLR,,0.00,WeatherDisplay:10.37,2013-08-08 20:42:00,
2013-08-08 16:45:00,79.4,71.6,29.94,NNE,29,0.3,2.3,77,0.00,CLR,,0.00,WeatherDisplay:10.37,2013-08-08 20:45:00,
2013-08-08 16:46:00,79.4,71.2,29.94,NE,38,0.4,1.1,76,0.00,CLR,,0.00,WeatherDisplay:10.37,2013-08-08 20:46:00,
2013-08-08 16:47:00,79.4,71.2,29.94,NE,42,1.3,4.0,76,0.00,CLR,,0.00,WeatherDisplay:10.37,2013-08-08 20:47:00,
2013-08-08 16:50:00,79.1,70.5,29.94,ENE,61,0.3,1.1,75,0.00,CLR,,0.00,WeatherDisplay:10.37,2013-08-08 20:50:00,
2013-08-08 16:52:00,79.1,70.9,29.94,NNE,29,0.3,1.1,76,0.00,CLR,,0.00,WeatherDisplay:10.37,2013-08-08 20:52:00,
2013-08-08 16:55:00,79.3,69.9,29.95,North,349,0.9,2.3,73,0.00,CLR,,0.00,WeatherDisplay:10.37,2013-08-08 20:55:00,
2013-08-08 16:57:00,79.3,69.9,29.95,North,5,0.8,2.3,73,0.00,CLR,,0.00,WeatherDisplay:10.37,2013-08-08 20:57:00,
2013-08-08 16:58:00,79.3,70.3,29.95,North,11,0.2,1.1,74,0.00,CLR,,0.00,WeatherDisplay:10.37,2013-08-08 20:58:00,
2013-08-08 17:00:00,79.4,69.6,29.95,NNW,344,0.5,3.5,72,0.00,CLR,,0.00,WeatherDisplay:10.37,2013-08-08 21:00:00,
2013-08-08 17:02:00,79.4,69.6,29.94,North,360,0.3,2.0,72,0.00,CLR,,0.00,WeatherDisplay:10.37,2013-08-08 21:02:00,
2013-08-08 17:03:00,79.4,70.0,29.94,North,355,0.3,2.3,73,0.00,CLR,,0.00,WeatherDisplay:10.37,2013-08-08 21:03:00,
2013-08-08 17:06:00,79.4,70.4,29.94,NNE,14,0.2,2.3,74,0.00,CLR,,0.00,WeatherDisplay:10.37,2013-08-08 21:06:00,
2013-08-08 17:07:00,79.4,70.0,29.94,NNE,21,0.7,2.3,73,0.00,CLR,,0.00,WeatherDisplay:10.37,2013-08-08 21:07:00,
2013-08-08 17:08:00,79.3,69.9,29.94,NNW,329,0.2,2.3,73,0.00,CLR,,0.00,WeatherDisplay:10.37,2013-08-08 21:08:00,
2013-08-08 17:12:00,79.4,70.8,29.94,North,11,0.2,1.0,75,0.00,CLR,,0.00,WeatherDisplay:10.37,2013-08-08 21:12:00,
2013-08-08 17:13:00,79.4,70.8,29.94,NNE,21,0.3,2.3,75,0.00,CLR,,0.00,WeatherDisplay:10.37,2013-08-08 21:13:00,
2013-08-08 17:14:00,79.4,70.4,29.95,North,9,0.1,1.1,74,0.00,CLR,,0.00,WeatherDisplay:10.37,2013-08-08 21:14:00,
2013-08-08 17:18:00,79.5,70.1,29.94,North,360,0.2,1.1,73,0.00,CLR,,0.00,WeatherDisplay:10.37,2013-08-08 21:18:00,
2013-08-08 17:19:00,79.5,70.1,29.94,North,360,0.2,1.1,73,0.00,CLR,,0.00,WeatherDisplay:10.37,2013-08-08 21:19:00,
2013-08-08 17:24:00,79.7,70.3,29.94,North,5,0.2,1.1,73,0.00,CLR,,0.00,WeatherDisplay:10.37,2013-08-08 21:24:00,
2013-08-08 17:30:00,79.7,70.3,29.94,North,9,0.1,1.1,73,0.00,CLR,,0.00,WeatherDisplay:10.37,2013-08-08 21:30:00,
2013-08-08 17:35:00,79.4,70.8,29.95,NE,56,0.0,0.0,75,0.00,CLR,,0.00,WeatherDisplay:10.37,2013-08-08 21:35:00,
2013-08-08 17:36:00,79.2,70.6,29.95,East,88,1.1,2.3,75,0.00,CLR,,0.00,WeatherDisplay:10.37,2013-08-08 21:36:00,
2013-08-08 17:40:00,78.4,69.4,29.94,ENE,57,3.0,6.9,74,0.00,CLR,,0.00,WeatherDisplay:10.37,2013-08-08 21:40:00,
2013-08-08 17:42:00,78.0,69.0,29.94,ENE,58,3.2,6.0,74,0.00,CLR,,0.00,WeatherDisplay:10.37,2013-08-08 21:42:00,
2013-08-08 17:46:00,77.4,69.2,29.95,ENE,60,2.2,6.0,76,0.00,CLR,,0.00,WeatherDisplay:10.37,2013-08-08 21:46:00,
2013-08-08 17:47:00,77.3,69.1,29.95,ENE,61,1.3,5.8,76,0.00,CLR,,0.00,WeatherDisplay:10.37,2013-08-08 21:47:00,
2013-08-08 17:53:00,77.3,69.5,29.95,NNE,31,0.7,2.0,77,0.00,CLR,,0.00,WeatherDisplay:10.37,2013-08-08 21:53:00,
2013-08-08 17:55:00,77.5,69.7,29.94,NNE,33,0.6,4.6,77,0.00,CLR,,0.00,WeatherDisplay:10.37,2013-08-08 21:55:00,
2013-08-08 17:58:00,77.4,69.2,29.94,ENE,76,0.9,3.5,76,0.00,CLR,,0.00,WeatherDisplay:10.37,2013-08-08 21:58:00,
2013-08-08 18:00:00,77.3,69.1,29.94,North,360,0.4,2.3,76,0.00,CLR,,0.00,WeatherDisplay:10.37,2013-08-08 22:00:00,
2013-08-08 18:04:00,77.4,69.6,29.94,North,360,0.1,2.3,77,0.00,CLR,,0.00,WeatherDisplay:10.37,2013-08-08 22:04:00,
2013-08-08 18:06:00,77.5,69.7,29.94,NE,40,0.7,2.0,77,0.00,CLR,,0.00,WeatherDisplay:10.37,2013-08-08 22:06:00,
2013-08-08 18:10:00,77.6,69.8,29.94,NNE,23,0.0,2.0,77,0.00,CLR,,0.00,WeatherDisplay:10.37,2013-08-08 22:10:00,
2013-08-08 18:13:00,78.0,70.2,29.94,NE,40,0.3,2.0,77,0.00,CLR,,0.00,WeatherDisplay:10.37,2013-08-08 22:13:00,
2013-08-08 18:15:00,78.0,70.2,29.94,NE,34,1.0,4.0,77,0.00,CLR,,0.00,WeatherDisplay:10.37,2013-08-08 22:15:00,
2013-08-08 18:18:00,77.9,69.7,29.94,NE,42,0.2,2.3,76,0.00,CLR,,0.00,WeatherDisplay:10.37,2013-08-08 22:18:00,
2013-08-08 18:20:00,77.9,69.7,29.94,NE,35,1.7,2.3,76,0.00,CLR,,0.00,WeatherDisplay:10.37,2013-08-08 22:20:00,
2013-08-08 18:21:00,77.9,70.1,29.94,NE,36,0.4,4.6,77,0.00,CLR,,0.00,WeatherDisplay:10.37,2013-08-08 22:21:00,
2013-08-08 18:22:00,77.9,69.7,29.94,ENE,78,1.1,4.6,76,0.00,CLR,,0.00,WeatherDisplay:10.37,2013-08-08 22:22:00,
2013-08-08 18:24:00,77.7,69.1,29.94,NE,46,0.5,2.0,75,0.00,CLR,,0.00,WeatherDisplay:10.37,2013-08-08 22:24:00,
2013-08-08 18:28:00,77.5,68.9,29.94,NE,50,1.4,3.5,75,0.00,CLR,,0.00,WeatherDisplay:10.37,2013-08-08 22:28:00,
2013-08-08 18:29:00,77.4,68.9,29.94,North,350,2.3,8.1,75,0.00,CLR,,0.00,WeatherDisplay:10.37,2013-08-08 22:29:00,
2013-08-08 18:30:00,77.4,69.6,29.94,North,350,1.0,3.5,77,0.00,CLR,,0.00,WeatherDisplay:10.37,2013-08-08 22:30:00,
2013-08-08 18:33:00,77.5,69.7,29.94,NE,41,0.4,2.3,77,0.00,CLR,,0.00,WeatherDisplay:10.37,2013-08-08 22:33:00,
2013-08-08 18:35:00,77.6,69.8,29.94,NE,41,0.1,1.1,77,0.00,CLR,,0.00,WeatherDisplay:10.37,2013-08-08 22:35:00,
2013-08-08 18:36:00,77.6,69.8,29.94,NE,41,0.0,1.1,77,0.00,CLR,,0.00,WeatherDisplay:10.37,2013-08-08 22:36:00,
2013-08-08 18:38:00,77.7,69.1,29.94,ENE,57,5.0,8.0,75,0.00,CLR,,0.00,WeatherDisplay:10.37,2013-08-08 22:38:00,
2013-08-08 18:40:00,77.6,69.0,29.94,NE,44,1.1,4.6,75,0.00,CLR,,0.00,WeatherDisplay:10.37,2013-08-08 22:40:00,
2013-08-08 18:43:00,77.5,69.7,29.94,ENE,76,0.3,2.0,77,0.00,CLR,,0.00,WeatherDisplay:10.37,2013-08-08 22:43:00,
2013-08-08 18:44:00,77.5,68.9,29.94,ENE,78,1.2,2.3,75,0.00,CLR,,0.00,WeatherDisplay:10.37,2013-08-08 22:44:00,
2013-08-08 18:45:00,77.5,69.0,29.94,ENE,61,1.0,3.0,75,0.00,CLR,,0.00,WeatherDisplay:10.37,2013-08-08 22:45:00,
2013-08-08 18:49:00,77.3,69.1,29.94,NE,55,2.2,3.5,76,0.00,CLR,,0.00,WeatherDisplay:10.37,2013-08-08 22:49:00,
2013-08-08 18:50:00,77.2,69.1,29.94,ENE,64,2.0,6.0,76,0.00,CLR,,0.00,WeatherDisplay:10.37,2013-08-08 22:50:00,
2013-08-08 18:55:00,77.0,68.8,29.94,ENE,61,1.0,3.0,76,0.00,CLR,,0.00,WeatherDisplay:10.37,2013-08-08 22:55:00,
2013-08-08 18:56:00,76.9,68.8,29.94,NE,44,0.6,3.5,76,0.00,CLR,,0.00,WeatherDisplay:10.37,2013-08-08 22:56:00,
2013-08-08 18:57:00,76.9,68.8,29.94,NE,44,0.3,2.3,76,0.00,CLR,,0.00,WeatherDisplay:10.37,2013-08-08 22:57:00,
2013-08-08 19:00:00,76.8,69.0,29.94,NE,36,1.1,4.6,77,0.00,CLR,,0.00,WeatherDisplay:10.37,2013-08-08 23:00:00,
2013-08-08 19:01:00,76.8,69.0,29.94,NE,36,0.3,2.3,77,0.00,CLR,,0.00,WeatherDisplay:10.37,2013-08-08 23:01:00,
2013-08-08 19:03:00,76.8,69.0,29.94,NNE,17,0.0,1.1,77,0.00,CLR,,0.00,WeatherDisplay:10.37,2013-08-08 23:03:00,
2013-08-08 19:04:00,76.7,68.9,29.94,NNE,33,0.5,3.5,77,0.00,CLR,,0.00,WeatherDisplay:10.37,2013-08-08 23:04:00,
2013-08-08 19:06:00,76.7,68.9,29.94,NNE,25,0.0,1.1,77,0.00,CLR,,0.00,WeatherDisplay:10.37,2013-08-08 23:06:00,
2013-08-08 19:07:00,76.7,68.9,29.94,NE,48,0.1,1.1,77,0.00,CLR,,0.00,WeatherDisplay:10.37,2013-08-08 23:07:00,
2013-08-08 19:09:00,76.6,68.8,29.94,NNE,33,0.0,1.1,77,0.00,CLR,,0.00,WeatherDisplay:10.37,2013-08-08 23:09:00,
2013-08-08 19:10:00,76.6,68.8,29.94,NNE,33,0.0,0.0,77,0.00,CLR,,0.00,WeatherDisplay:10.37,2013-08-08 23:10:00,
2013-08-08 19:11:00,76.6,68.8,29.94,NE,41,0.2,0.0,77,0.00,CLR,,0.00,WeatherDisplay:10.37,2013-08-08 23:11:00,
2013-08-08 19:13:00,76.6,69.2,29.94,NE,40,0.0,1.1,78,0.00,CLR,,0.00,WeatherDisplay:10.37,2013-08-08 23:13:00,
2013-08-08 19:14:00,76.5,69.1,29.94,NE,40,0.0,1.1,78,0.00,CLR,,0.00,WeatherDisplay:10.37,2013-08-08 23:14:00,
2013-08-08 19:15:00,76.5,69.1,29.94,NE,40,0.0,1.1,78,0.00,CLR,,0.00,WeatherDisplay:10.37,2013-08-08 23:15:00,
2013-08-08 19:18:00,76.5,69.1,29.94,NNW,342,0.2,1.1,78,0.00,CLR,,0.00,WeatherDisplay:10.37,2013-08-08 23:18:00,
2013-08-08 19:20:00,76.5,69.1,29.94,NNW,342,0.1,1.1,78,0.00,CLR,,0.00,WeatherDisplay:10.37,2013-08-08 23:20:00,
2013-08-08 19:25:00,76.3,69.3,29.94,North,353,0.0,2.0,79,0.00,CLR,,0.00,WeatherDisplay:10.37,2013-08-08 23:25:00,
2013-08-08 19:26:00,76.2,69.2,29.94,North,355,0.0,1.0,79,0.00,CLR,,0.00,WeatherDisplay:10.37,2013-08-08 23:26:00,
2013-08-08 19:31:00,76.0,69.0,29.94,North,5,0.0,1.1,79,0.00,CLR,,0.00,WeatherDisplay:10.37,2013-08-08 23:31:00,
2013-08-08 19:32:00,76.0,69.0,29.94,North,5,0.0,1.1,79,0.00,CLR,,0.00,WeatherDisplay:10.37,2013-08-08 23:32:00,
2013-08-08 19:33:00,75.9,68.9,29.94,North,349,0.0,1.1,79,0.00,CLR,,0.00,WeatherDisplay:10.37,2013-08-08 23:33:00,
2013-08-08 19:37:00,75.7,68.7,29.94,NNE,16,0.0,1.1,79,0.00,CLR,,0.00,WeatherDisplay:10.37,2013-08-08 23:37:00,
2013-08-08 19:38:00,75.7,69.1,29.94,North,351,0.0,1.1,80,0.00,CLR,,0.00,WeatherDisplay:10.37,2013-08-08 23:38:00,
2013-08-08 19:41:00,75.5,68.9,29.94,North,5,0.0,1.1,80,0.00,CLR,,0.00,WeatherDisplay:10.37,2013-08-08 23:41:00,
2013-08-08 19:43:00,75.4,68.8,29.94,NNE,24,0.4,2.3,80,0.00,CLR,,0.00,WeatherDisplay:10.37,2013-08-08 23:43:00,
2013-08-08 19:45:00,75.3,68.7,29.94,NNE,17,0.0,2.0,80,0.00,CLR,,0.00,WeatherDisplay:10.37,2013-08-08 23:45:00,
2013-08-08 19:47:00,75.2,68.6,29.94,NNW,347,0.0,1.1,80,0.00,CLR,,0.00,WeatherDisplay:10.37,2013-08-08 23:47:00,
2013-08-08 19:48:00,75.2,68.6,29.94,North,350,0.2,1.1,80,0.00,CLR,,0.00,WeatherDisplay:10.37,2013-08-08 23:48:00,
2013-08-08 19:49:00,75.2,68.6,29.94,North,350,0.2,1.1,80,0.00,CLR,,0.00,WeatherDisplay:10.37,2013-08-08 23:49:00,
2013-08-08 19:52:00,75.0,68.4,29.94,North,355,0.0,0.0,80,0.00,CLR,,0.00,WeatherDisplay:10.37,2013-08-08 23:52:00,
2013-08-08 19:54:00,74.9,68.3,29.94,North,5,0.0,1.1,80,0.00,CLR,,0.00,WeatherDisplay:10.37,2013-08-08 23:54:00,
2013-08-08 19:55:00,74.9,68.3,29.94,North,5,0.0,1.1,80,0.00,CLR,,0.00,WeatherDisplay:10.37,2013-08-08 23:55:00,
2013-08-08 19:57:00,74.8,68.6,29.94,NNE,15,0.0,1.1,81,0.00,CLR,,0.00,WeatherDisplay:10.37,2013-08-08 23:57:00,
2013-08-08 19:59:00,74.7,68.5,29.94,NNE,15,0.0,0.0,81,0.00,CLR,,0.00,WeatherDisplay:10.37,2013-08-08 23:59:00,
2013-08-08 20:00:00,74.7,68.5,29.94,NNE,15,0.0,0.0,81,0.00,CLR,,0.00,WeatherDisplay:10.37,2013-08-09 00:00:00,
2013-08-08 20:02:00,74.6,68.4,29.94,NNE,15,0.0,0.0,81,0.00,CLR,,0.00,WeatherDisplay:10.37,2013-08-09 00:02:00,
2013-08-08 20:03:00,74.6,68.4,29.94,NNE,15,0.0,0.0,81,0.00,CLR,,0.00,WeatherDisplay:10.37,2013-08-09 00:03:00,
2013-08-08 20:06:00,74.5,68.3,29.95,NNE,19,0.0,1.1,81,0.00,CLR,,0.00,WeatherDisplay:10.37,2013-08-09 00:06:00,
2013-08-08 20:07:00,74.5,68.3,29.94,NNE,19,0.0,1.1,81,0.00,CLR,,0.00,WeatherDisplay:10.37,2013-08-09 00:07:00,
2013-08-08 20:08:00,74.4,68.2,29.95,NNE,19,0.0,1.0,81,0.00,CLR,,0.00,WeatherDisplay:10.37,2013-08-09 00:08:00,
2013-08-08 20:09:00,74.4,68.2,29.95,NNE,19,0.1,1.1,81,0.00,CLR,,0.00,WeatherDisplay:10.37,2013-08-09 00:09:00,
2013-08-08 20:12:00,74.3,68.1,29.95,NNE,17,0.0,0.0,81,0.00,CLR,,0.00,WeatherDisplay:10.37,2013-08-09 00:12:00,
2013-08-08 20:14:00,74.2,68.3,29.95,NNE,18,0.0,0.0,82,0.00,CLR,,0.00,WeatherDisplay:10.37,2013-08-09 00:14:00,
2013-08-08 20:18:00,74.0,68.2,29.95,NNE,18,0.0,0.0,82,0.00,CLR,,0.00,WeatherDisplay:10.37,2013-08-09 00:18:00,
2013-08-08 20:19:00,74.0,68.2,29.95,NNE,18,0.0,0.0,82,0.00,CLR,,0.00,WeatherDisplay:10.37,2013-08-09 00:19:00,
2013-08-08 20:24:00,73.7,68.2,29.95,NNE,18,0.0,0.0,83,0.00,CLR,,0.00,WeatherDisplay:10.37,2013-08-09 00:24:00,
2013-08-08 20:25:00,73.7,67.9,29.95,NNE,18,0.0,0.0,82,0.00,CLR,,0.00,WeatherDisplay:10.37,2013-08-09 00:25:00,
2013-08-08 20:30:00,73.5,68.0,29.95,NNE,18,0.0,0.0,83,0.00,CLR,,0.00,WeatherDisplay:10.37,2013-08-09 00:30:00,
2013-08-08 20:35:00,73.3,67.8,29.95,NNE,18,0.0,0.0,83,0.00,CLR,,0.00,WeatherDisplay:10.37,2013-08-09 00:35:00,
2013-08-08 20:36:00,73.3,67.8,29.95,NNE,18,0.0,0.0,83,0.00,CLR,,0.00,WeatherDisplay:10.37,2013-08-09 00:36:00,
2013-08-08 20:37:00,73.3,67.8,29.95,NNE,18,0.0,0.0,83,0.00,CLR,,0.00,WeatherDisplay:10.37,2013-08-09 00:37:00,
2013-08-08 20:41:00,73.1,67.6,29.95,NNE,15,0.1,1.1,83,0.00,CLR,,0.00,WeatherDisplay:10.37,2013-08-09 00:41:00,
2013-08-08 20:42:00,73.0,67.5,29.95,NNE,22,0.1,1.1,83,0.00,CLR,,0.00,WeatherDisplay:10.37,2013-08-09 00:42:00,
2013-08-08 20:43:00,73.0,67.5,29.95,NNE,22,0.0,1.1,83,0.00,CLR,,0.00,WeatherDisplay:10.37,2013-08-09 00:43:00,
2013-08-08 20:47:00,72.9,67.8,29.95,NNE,22,0.1,1.1,84,0.00,CLR,,0.00,WeatherDisplay:10.37,2013-08-09 00:47:00,
2013-08-08 20:48:00,72.9,67.8,29.95,NNE,22,0.0,0.0,84,0.00,CLR,,0.00,WeatherDisplay:10.37,2013-08-09 00:48:00,
2013-08-08 20:49:00,72.8,67.7,29.95,NNE,22,0.0,0.0,84,0.00,CLR,,0.00,WeatherDisplay:10.37,2013-08-09 00:49:00,
2013-08-08 20:52:00,72.7,67.6,29.95,NNE,18,0.0,1.1,84,0.00,CLR,,0.00,WeatherDisplay:10.37,2013-08-09 00:52:00,
2013-08-08 20:55:00,72.7,67.6,29.95,NNE,19,0.0,1.0,84,0.00,CLR,,0.00,WeatherDisplay:10.37,2013-08-09 00:55:00,
2013-08-08 21:00:00,72.6,67.8,29.96,NNE,18,0.0,1.0,85,0.00,CLR,,0.00,WeatherDisplay:10.37,2013-08-09 01:00:00,
2013-08-08 21:06:00,72.4,67.6,29.96,NNE,18,0.0,0.0,85,0.00,CLR,,0.00,WeatherDisplay:10.37,2013-08-09 01:06:00,
2013-08-08 21:07:00,72.4,67.6,29.96,NNE,18,0.0,0.0,85,0.00,CLR,,0.00,WeatherDisplay:10.37,2013-08-09 01:07:00,
2013-08-08 21:08:00,72.4,67.6,29.96,NNE,18,0.0,0.0,85,0.00,CLR,,0.00,WeatherDisplay:10.37,2013-08-09 01:08:00,
2013-08-08 21:12:00,72.3,67.5,29.96,NNE,18,0.0,0.0,85,0.00,CLR,,0.00,WeatherDisplay:10.37,2013-08-09 01:12:00,
2013-08-08 21:14:00,72.2,67.4,29.95,NNE,18,0.0,0.0,85,0.00,CLR,,0.00,WeatherDisplay:10.37,2013-08-09 01:14:00,
2013-08-08 21:15:00,72.2,67.4,29.96,NNE,18,0.0,0.0,85,0.00,CLR,,0.00,WeatherDisplay:10.37,2013-08-09 01:15:00,
2013-08-08 21:17:00,72.2,67.8,29.96,NNE,18,0.0,0.0,86,0.00,CLR,,0.00,WeatherDisplay:10.37,2013-08-09 01:17:00,
2013-08-08 21:19:00,72.2,67.4,29.96,NNE,18,0.0,0.0,85,0.00,CLR,,0.00,WeatherDisplay:10.37,2013-08-09 01:19:00,
2013-08-08 21:22:00,72.1,67.3,29.96,NNE,18,0.0,0.0,85,0.00,CLR,,0.00,WeatherDisplay:10.37,2013-08-09 01:22:00,
2013-08-08 21:23:00,72.1,67.3,29.96,NNE,18,0.0,0.0,85,0.00,CLR,,0.00,WeatherDisplay:10.37,2013-08-09 01:23:00,
2013-08-08 21:24:00,72.1,67.3,29.96,NNE,18,0.0,0.0,85,0.00,CLR,,0.00,WeatherDisplay:10.37,2013-08-09 01:24:00,
2013-08-08 21:25:00,72.0,67.2,29.96,NNE,18,0.0,0.0,85,0.00,CLR,,0.00,WeatherDisplay:10.37,2013-08-09 01:25:00,
2013-08-08 21:28:00,72.0,67.2,29.96,North,11,0.0,0.0,85,0.00,CLR,,0.00,WeatherDisplay:10.37,2013-08-09 01:28:00,
2013-08-08 21:29:00,71.9,67.1,29.96,North,11,0.0,0.0,85,0.00,CLR,,0.00,WeatherDisplay:10.37,2013-08-09 01:29:00,
2013-08-08 21:32:00,71.9,67.1,29.97,North,11,0.0,0.0,85,0.00,CLR,,0.00,WeatherDisplay:10.37,2013-08-09 01:32:00,
2013-08-08 21:33:00,71.8,67.0,29.97,North,5,0.0,0.0,85,0.00,CLR,,0.00,WeatherDisplay:10.37,2013-08-09 01:33:00,
2013-08-08 21:34:00,71.7,66.9,29.97,North,5,0.0,0.0,85,0.00,CLR,,0.00,WeatherDisplay:10.37,2013-08-09 01:34:00,
2013-08-08 21:35:00,71.8,67.0,29.97,North,10,0.0,0.0,85,0.00,CLR,,0.00,WeatherDisplay:10.37,2013-08-09 01:35:00,
2013-08-08 21:37:00,71.7,66.9,29.97,North,5,0.0,0.0,85,0.00,CLR,,0.00,WeatherDisplay:10.37,2013-08-09 01:37:00,
2013-08-08 21:38:00,71.6,66.8,29.97,North,11,0.0,0.0,85,0.00,CLR,,0.00,WeatherDisplay:10.37,2013-08-09 01:38:00,
2013-08-08 21:39:00,71.6,66.8,29.97,North,5,0.0,0.0,85,0.00,CLR,,0.00,WeatherDisplay:10.37,2013-08-09 01:39:00,
2013-08-08 21:40:00,71.5,66.8,29.97,North,5,0.0,0.0,85,0.00,CLR,,0.00,WeatherDisplay:10.37,2013-08-09 01:40:00,
2013-08-08 21:43:00,71.4,66.7,29.97,North,9,0.0,0.0,85,0.00,CLR,,0.00,WeatherDisplay:10.37,2013-08-09 01:43:00,
2013-08-08 21:44:00,71.3,66.6,29.97,North,9,0.0,0.0,85,0.00,CLR,,0.00,WeatherDisplay:10.37,2013-08-09 01:44:00,
2013-08-08 21:45:00,71.2,66.5,29.97,North,9,0.0,0.0,85,0.00,CLR,,0.00,WeatherDisplay:10.37,2013-08-09 01:45:00,
2013-08-08 21:48:00,71.1,66.7,29.97,North,9,0.0,0.0,86,0.00,CLR,,0.00,WeatherDisplay:10.37,2013-08-09 01:48:00,
2013-08-08 21:50:00,71.0,66.6,29.97,North,9,0.0,0.0,86,0.00,CLR,,0.00,WeatherDisplay:10.37,2013-08-09 01:50:00,
2013-08-08 21:51:00,71.0,66.6,29.97,North,9,0.0,0.0,86,0.00,CLR,,0.00,WeatherDisplay:10.37,2013-08-09 01:51:00,
2013-08-08 21:55:00,70.9,66.5,29.97,North,9,0.0,0.0,86,0.00,CLR,,0.00,WeatherDisplay:10.37,2013-08-09 01:55:00,
2013-08-08 21:56:00,70.8,66.4,29.97,North,9,0.0,0.0,86,0.00,CLR,,0.00,WeatherDisplay:10.37,2013-08-09 01:56:00,
2013-08-08 22:00:00,70.7,66.3,29.97,North,9,0.0,0.0,86,0.00,CLR,,0.00,WeatherDisplay:10.37,2013-08-09 02:00:00,
2013-08-08 22:01:00,70.6,66.2,29.97,North,9,0.0,0.0,86,0.00,CLR,,0.00,WeatherDisplay:10.37,2013-08-09 02:01:00,
2013-08-08 22:02:00,70.6,66.2,29.97,North,9,0.0,0.0,86,0.00,CLR,,0.00,WeatherDisplay:10.37,2013-08-09 02:02:00,
2013-08-08 22:03:00,70.6,66.2,29.97,North,9,0.0,0.0,86,0.00,CLR,,0.00,WeatherDisplay:10.37,2013-08-09 02:03:00,
2013-08-08 22:06:00,70.5,66.1,29.97,North,9,0.0,0.0,86,0.00,CLR,,0.00,WeatherDisplay:10.37,2013-08-09 02:06:00,
2013-08-08 22:07:00,70.5,66.1,29.97,North,9,0.0,0.0,86,0.00,CLR,,0.00,WeatherDisplay:10.37,2013-08-09 02:07:00,
2013-08-08 22:09:00,70.4,66.0,29.97,North,9,0.0,0.0,86,0.00,CLR,,0.00,WeatherDisplay:10.37,2013-08-09 02:09:00,
2013-08-08 22:11:00,70.4,66.0,29.97,North,9,0.0,0.0,86,0.00,CLR,,0.00,WeatherDisplay:10.37,2013-08-09 02:11:00,
2013-08-08 22:13:00,70.3,65.9,29.97,North,9,0.0,0.0,86,0.00,CLR,,0.00,WeatherDisplay:10.37,2013-08-09 02:13:00,
2013-08-08 22:15:00,70.3,65.9,29.97,North,9,0.0,0.0,86,0.00,CLR,,0.00,WeatherDisplay:10.37,2013-08-09 02:15:00,
2013-08-08 22:16:00,70.3,65.9,29.97,North,9,0.0,0.0,86,0.00,CLR,,0.00,WeatherDisplay:10.37,2013-08-09 02:16:00,
2013-08-08 22:18:00,70.3,65.9,29.97,North,9,0.0,0.0,86,0.00,CLR,,0.00,WeatherDisplay:10.37,2013-08-09 02:18:00,
2013-08-08 22:20:00,70.2,65.8,29.97,North,9,0.0,0.0,86,0.00,CLR,,0.00,WeatherDisplay:10.37,2013-08-09 02:20:00,
2013-08-08 22:23:00,70.1,65.7,29.97,North,9,0.0,0.0,86,0.00,CLR,,0.00,WeatherDisplay:10.37,2013-08-09 02:23:00,
2013-08-08 22:24:00,70.1,65.7,29.97,North,9,0.0,0.0,86,0.00,CLR,,0.00,WeatherDisplay:10.37,2013-08-09 02:24:00,
2013-08-08 22:25:00,70.1,65.7,29.97,North,9,0.0,0.0,86,0.00,CLR,,0.00,WeatherDisplay:10.37,2013-08-09 02:25:00,
2013-08-08 22:28:00,70.0,65.6,29.97,North,9,0.0,0.0,86,0.00,CLR,,0.00,WeatherDisplay:10.37,2013-08-09 02:28:00,
2013-08-08 22:30:00,70.0,65.6,29.97,North,9,0.0,0.0,86,0.00,CLR,,0.00,WeatherDisplay:10.37,2013-08-09 02:30:00,
2013-08-08 22:31:00,70.0,65.6,29.97,North,9,0.0,0.0,86,0.00,CLR,,0.00,WeatherDisplay:10.37,2013-08-09 02:31:00,
2013-08-08 22:33:00,69.9,65.2,29.97,North,9,0.0,0.0,85,0.00,CLR,,0.00,WeatherDisplay:10.37,2013-08-09 02:33:00,
2013-08-08 22:36:00,69.9,65.5,29.97,North,9,0.0,0.0,86,0.00,CLR,,0.00,WeatherDisplay:10.37,2013-08-09 02:36:00,
2013-08-08 22:39:00,69.8,65.4,29.97,North,9,0.0,0.0,86,0.00,CLR,,0.00,WeatherDisplay:10.37,2013-08-09 02:39:00,
2013-08-08 22:41:00,69.8,65.1,29.97,North,9,0.0,0.0,85,0.00,CLR,,0.00,WeatherDisplay:10.37,2013-08-09 02:41:00,
2013-08-08 22:42:00,69.8,65.1,29.97,North,9,0.0,0.0,85,0.00,CLR,,0.00,WeatherDisplay:10.37,2013-08-09 02:42:00,
2013-08-08 22:44:00,69.7,65.3,29.97,North,9,0.0,0.0,86,0.00,CLR,,0.00,WeatherDisplay:10.37,2013-08-09 02:44:00,
2013-08-08 22:46:00,69.7,65.3,29.97,North,9,0.0,0.0,86,0.00,CLR,,0.00,WeatherDisplay:10.37,2013-08-09 02:46:00,
2013-08-08 22:47:00,69.7,65.0,29.98,North,9,0.0,0.0,85,0.00,CLR,,0.00,WeatherDisplay:10.37,2013-08-09 02:47:00,
2013-08-08 22:50:00,69.6,65.2,29.97,North,360,0.0,0.0,86,0.00,CLR,,0.00,WeatherDisplay:10.37,2013-08-09 02:50:00,
2013-08-08 22:52:00,69.4,65.0,29.97,NNE,13,0.0,0.0,86,0.00,CLR,,0.00,WeatherDisplay:10.37,2013-08-09 02:52:00,
2013-08-08 22:53:00,69.4,65.0,29.97,NNE,13,0.0,0.0,86,0.00,CLR,,0.00,WeatherDisplay:10.37,2013-08-09 02:53:00,
2013-08-08 22:55:00,69.3,64.9,29.97,North,355,0.0,0.0,86,0.00,CLR,,0.00,WeatherDisplay:10.37,2013-08-09 02:55:00,
2013-08-08 22:58:00,69.2,65.2,29.97,North,360,0.0,0.0,87,0.00,CLR,,0.00,WeatherDisplay:10.37,2013-08-09 02:58:00,
2013-08-08 23:01:00,69.0,65.0,29.98,North,360,0.0,0.0,87,0.00,CLR,,0.00,WeatherDisplay:10.37,2013-08-09 03:01:00,
2013-08-08 23:03:00,68.9,64.9,29.98,North,360,0.0,0.0,87,0.00,CLR,,0.00,WeatherDisplay:10.37,2013-08-09 03:03:00,
2013-08-08 23:04:00,68.9,64.9,29.98,North,360,0.0,0.0,87,0.00,CLR,,0.00,WeatherDisplay:10.37,2013-08-09 03:04:00,
2013-08-08 23:08:00,68.8,64.8,29.98,North,360,0.0,0.0,87,0.00,CLR,,0.00,WeatherDisplay:10.37,2013-08-09 03:08:00,
2013-08-08 23:10:00,68.8,64.8,29.98,North,1,0.0,0.0,87,0.00,CLR,,0.00,WeatherDisplay:10.37,2013-08-09 03:10:00,
2013-08-08 23:14:00,68.8,64.8,29.98,North,9,0.0,0.0,87,0.00,CLR,,0.00,WeatherDisplay:10.37,2013-08-09 03:14:00,
2013-08-08 23:15:00,68.8,64.8,29.98,North,9,0.0,0.0,87,0.00,CLR,,0.00,WeatherDisplay:10.37,2013-08-09 03:15:00,
2013-08-08 23:16:00,68.8,64.8,29.98,North,9,0.0,0.0,87,0.00,CLR,,0.00,WeatherDisplay:10.37,2013-08-09 03:16:00,
2013-08-08 23:20:00,68.8,64.8,29.98,North,5,0.0,0.0,87,0.00,CLR,,0.00,WeatherDisplay:10.37,2013-08-09 03:20:00,
2013-08-08 23:21:00,68.8,64.8,29.98,North,5,0.0,0.0,87,0.00,CLR,,0.00,WeatherDisplay:10.37,2013-08-09 03:21:00,
2013-08-08 23:23:00,68.7,64.7,29.98,North,5,0.0,0.0,87,0.00,CLR,,0.00,WeatherDisplay:10.37,2013-08-09 03:23:00,
2013-08-08 23:26:00,68.7,65.0,29.98,North,5,0.0,0.0,88,0.00,CLR,,0.00,WeatherDisplay:10.37,2013-08-09 03:26:00,
2013-08-08 23:29:00,68.7,65.0,29.97,North,5,0.0,0.0,88,0.00,CLR,,0.00,WeatherDisplay:10.37,2013-08-09 03:29:00,
2013-08-08 23:32:00,68.6,64.9,29.97,North,5,0.0,0.0,88,0.00,CLR,,0.00,WeatherDisplay:10.37,2013-08-09 03:32:00,
2013-08-08 23:33:00,68.6,64.9,29.97,North,5,0.0,0.0,88,0.00,CLR,,0.00,WeatherDisplay:10.37,2013-08-09 03:33:00,
2013-08-08 23:34:00,68.6,64.6,29.97,North,5,0.0,0.0,87,0.00,CLR,,0.00,WeatherDisplay:10.37,2013-08-09 03:34:00,
2013-08-08 23:37:00,68.5,64.5,29.97,North,5,0.0,0.0,87,0.00,CLR,,0.00,WeatherDisplay:10.37,2013-08-09 03:37:00,
2013-08-08 23:38:00,68.5,64.5,29.97,North,5,0.0,0.0,87,0.00,CLR,,0.00,WeatherDisplay:10.37,2013-08-09 03:38:00,
2013-08-08 23:39:00,68.5,64.5,29.97,North,5,0.0,0.0,87,0.00,CLR,,0.00,WeatherDisplay:10.37,2013-08-09 03:39:00,
2013-08-08 23:42:00,68.4,64.4,29.97,North,5,0.0,0.0,87,0.00,CLR,,0.00,WeatherDisplay:10.37,2013-08-09 03:42:00,
2013-08-08 23:43:00,68.4,64.4,29.96,North,5,0.0,0.0,87,0.00,CLR,,0.00,WeatherDisplay:10.37,2013-08-09 03:43:00,
2013-08-08 23:44:00,68.4,64.4,29.96,North,5,0.0,0.0,87,0.00,CLR,,0.00,WeatherDisplay:10.37,2013-08-09 03:44:00,
2013-08-08 23:49:00,68.3,64.3,29.96,North,5,0.0,0.0,87,0.00,CLR,,0.00,WeatherDisplay:10.37,2013-08-09 03:49:00,
2013-08-08 23:50:00,68.3,64.3,29.96,North,5,0.0,0.0,87,0.00,CLR,,0.00,WeatherDisplay:10.37,2013-08-09 03:50:00,
2013-08-08 23:51:00,68.3,64.3,29.96,North,5,0.0,0.0,87,0.00,CLR,,0.00,WeatherDisplay:10.37,2013-08-09 03:51:00,
2013-08-08 23:54:00,68.3,64.3,29.96,North,5,0.0,0.0,87,0.00,CLR,,0.00,WeatherDisplay:10.37,2013-08-09 03:54:00,
2013-08-08 23:55:00,68.3,64.3,29.96,North,5,0.0,0.0,87,0.00,CLR,,0.00,WeatherDisplay:10.37,2013-08-09 03:55:00,
2013-08-08 23:56:00,68.3,64.3,29.96,North,5,0.0,0.0,87,0.00,CLR,,0.00,WeatherDisplay:10.37,2013-08-09 03:56:00,
2013-08-08 23:59:00,68.2,64.2,29.96,North,9,0.0,0.0,87,0.00,CLR,,0.00,WeatherDisplay:10.37,2013-08-09 03:59:00,